TimeCST,TemperatureF,Dew PointF,Humidity,Sea Level PressureIn,VisibilityMPH,Wind Direction,Wind SpeedMPH,Gust SpeedMPH,PrecipitationIn,Events,Conditions,WindDirDegrees,DateUTC
12:55 AM,3.0,-3.5,74,30.11,10.0,WNW,21.9,-,N/A,,Clear,290,2013-01-25 06:55:00
1:55 AM,1.0,-5.4,74,30.13,10.0,WNW,23.0,-,N/A,,Clear,300,2013-01-25 07:55:00
2:55 AM,-0.8,-6.9,75,30.16,10.0,WNW,20.7,-,N/A,,Clear,300,2013-01-25 08:55:00
3:55 AM,-2.4,-8.3,76,30.18,10.0,WNW,19.6,-,N/A,,Clear,300,2013-01-25 09:55:00
4:55 AM,-3.8,-10.1,74,30.19,10.0,NW,18.4,-,N/A,,Clear,310,2013-01-25 10:55:00
5:55 AM,-5.6,-11.9,74,30.22,10.0,NW,16.1,-,N/A,,Clear,320,2013-01-25 11:55:00
6:55 AM,-7.1,-13.4,74,30.23,10.0,NW,12.7,-,N/A,,Clear,320,2013-01-25 12:55:00
7:55 AM,-9.2,-15.0,76,30.25,10.0,NW,9.2,-,N/A,,Clear,310,2013-01-25 13:55:00
8:55 AM,-10.1,-15.9,76,30.29,10.0,WNW,8.1,-,N/A,,Clear,300,2013-01-25 14:55:00
9:55 AM,-8.1,-14.6,73,30.31,10.0,NW,8.1,-,N/A,,Clear,310,2013-01-25 15:55:00
11:55 AM,-5.3,-13.4,68,30.36,10.0,Calm,Calm,-,N/A,,Clear,0,2013-01-25 17:55:00
12:55 PM,-3.8,-12.1,68,30.34,10.0,Calm,Calm,-,N/A,,Clear,0,2013-01-25 18:55:00
1:55 PM,-2.9,-11.4,67,30.31,10.0,Calm,Calm,-,N/A,,Clear,0,2013-01-25 19:55:00
2:55 PM,-2.2,-10.7,67,30.30,10.0,South,4.6,-,N/A,,Clear,180,2013-01-25 20:55:00
3:23 PM,-2.2,-11.2,66,30.30,10.0,South,3.5,-,N/A,,Clear,190,2013-01-25 21:23:00
3:27 PM,-2.2,-11.2,66,30.30,10.0,South,4.6,-,N/A,,Clear,170,2013-01-25 21:27:00
3:30 PM,-2.2,-9.4,71,30.30,10.0,SSE,3.5,-,N/A,,Clear,160,2013-01-25 21:30:00
3:34 PM,-0.4,-9.4,66,30.30,10.0,SSE,3.5,-,N/A,,Clear,160,2013-01-25 21:34:00
3:39 PM,-0.4,-9.4,66,30.30,10.0,SE,5.8,-,N/A,,Clear,140,2013-01-25 21:39:00
3:43 PM,-0.4,-9.4,66,30.30,10.0,SE,5.8,-,N/A,,Clear,140,2013-01-25 21:43:00
3:55 PM,-0.4,-9.0,67,30.29,10.0,SE,5.8,-,N/A,,Clear,130,2013-01-25 21:55:00
4:55 PM,-0.8,-8.5,70,30.28,10.0,SE,9.2,-,N/A,,Clear,140,2013-01-25 22:55:00
5:55 PM,-1.5,-9.0,70,30.27,10.0,SE,12.7,-,N/A,,Clear,130,2013-01-25 23:55:00
6:55 PM,-1.7,-8.7,72,30.26,10.0,SE,11.5,-,N/A,,Clear,140,2013-01-26 00:55:00
7:55 PM,-0.6,-7.2,73,30.25,10.0,SSE,11.5,-,N/A,,Mostly Cloudy,150,2013-01-26 01:55:00
8:55 PM,0.7,-6.3,72,30.22,10.0,SE,13.8,-,N/A,,Overcast,140,2013-01-26 02:55:00
9:55 PM,1.6,-5.1,74,30.20,10.0,SE,16.1,-,N/A,,Overcast,140,2013-01-26 03:55:00
10:55 PM,2.7,-3.8,74,30.17,10.0,SE,15.0,-,N/A,,Overcast,140,2013-01-26 04:55:00
11:55 PM,3.2,-3.3,74,30.16,10.0,SE,13.8,-,N/A,,Clear,140,2013-01-26 05:55:00